{"data":{"norad_id":60444,"epoch":"2026-05-25T04:28:58.285344Z","epoch_age_seconds":58646,"freshness":"FRESH","line1":"1 60444U 24144V   26145.18678571  .00000897  00000+0  37698-4 0  9994","line2":"2 60444  53.1623 220.9253 0000975  97.9397 262.1716 15.34389598101077","mean_motion":15.34389598,"eccentricity":9.75e-5,"inclination_deg":53.1623,"raan_deg":220.9253,"arg_perigee_deg":97.9397,"mean_anomaly_deg":262.1716,"bstar":3.7698e-5,"rev_number":10107,"period_min":93.848394298095,"perigee_km":462.06717238005,"apogee_km":463.40114225573,"semimajor_km":6840.8711573179,"source":"CELESTRAK","updated_at":"2026-05-25T13:38:19.276920Z"}}